This is the latest recevied weather packets stored in our database for station/object W4BOD. If no packets are shown the sender has not sent any weather packets the latest 10 day(s).
| Time | Temp. | Humidity | Pressure | Rain* | Wind** | Luminosity | Snow |
|---|---|---|---|---|---|---|---|
| 1777566548 | 17.78° C | 46% | 1017.2 hPa | 0 mm | - | 892 W/m² | - |
| 1777566245 | 17.22° C | 50% | 1017.1 hPa | 0 mm | - | 898 W/m² | - |
| 1777565942 | 16.67° C | 51% | 1016.9 hPa | 0 mm | - | 891 W/m² | - |
| 1777565637 | 16.67° C | 51% | 1016.8 hPa | 0 mm | - | 878 W/m² | - |
| 1777565334 | 17.22° C | 49% | 1017.1 hPa | 0 mm | - | 875 W/m² | - |
| 1777565030 | 16.67° C | 48% | 1017.2 hPa | 0 mm | - | 866 W/m² | - |
| 1777564726 | 16.67° C | 49% | 1017.1 hPa | 0 mm | - | 857 W/m² | - |
| 1777564421 | 16.67° C | 50% | 1017.2 hPa | 0 mm | - | 850 W/m² | - |
| 1777564117 | 16.67° C | 51% | 1017.2 hPa | 0 mm | - | 837 W/m² | - |
| 1777563813 | 15.56° C | 51% | 1017.1 hPa | 0 mm | - | 833 W/m² | - |
| 1777563510 | 16.11° C | 50% | 1017.1 hPa | 0 mm | - | 821 W/m² | - |
| 1777563209 | 16.67° C | 51% | 1017 hPa | 0 mm | - | 812 W/m² | - |
| 1777562906 | 16.11° C | 53% | 1017.3 hPa | 0 mm | - | 802 W/m² | - |
| 1777562602 | 16.11° C | 51% | 1017.4 hPa | 0 mm | - | 791 W/m² | - |
| 1777562301 | 16.11° C | 53% | 1017.2 hPa | 0 mm | - | 778 W/m² | - |
| 1777561997 | 16.11° C | 51% | 1017.3 hPa | 0 mm | - | 767 W/m² | - |
| 1777561695 | 15.56° C | 50% | 1017.2 hPa | 0 mm | - | 755 W/m² | - |
| 1777561390 | 15.56° C | 50% | 1017.2 hPa | 0 mm | - | 741 W/m² | - |
| 1777561085 | 15.56° C | 49% | 1017.3 hPa | 0 mm | - | 729 W/m² | - |
| 1777560781 | 15.56° C | 51% | 1017.2 hPa | 0 mm | - | 716 W/m² | - |
| 1777560478 | 15.56° C | 51% | 1017.3 hPa | 0 mm | - | 703 W/m² | - |
| 1777560176 | 15° C | 51% | 1017.4 hPa | 0 mm | - | 691 W/m² | - |
| 1777559873 | 15.56° C | 50% | 1017.7 hPa | 0 mm | - | 672 W/m² | - |
| 1777559568 | 15° C | 49% | 1017.6 hPa | 0 mm | - | 660 W/m² | - |
| 1777559266 | 15.56° C | 49% | 1017.6 hPa | 0 mm | - | 644 W/m² | - |
* Rain latest hour (hover to see other rain measurements)
** Current wind speed in m/s (hover to see current wind gust speed)